Theta_e
342 332 330 330 329 331 330 331 333 341 347 347 346 346 346 344 343 340 338 336 335 333 332 332 331 330 331 329 323 320 319 322 326 326 326 326 326 326 326 329 333 337 339 341 341 339 337 337 338 337 338 339 338 337 336 337 334 334 333 331 331 331 331 332 331 331 334 336 335 336 335 335 336 336 336 337 337 336 334 332 333 333 334 334 334
340 331 330 330 330 330 330 331 336 343 347 348 347 346 346 345 343 340 337 336 335 333 333 333 331 331 333 330 324 323 323 324 327 326 324 325 326 326 328 334 339 342 342 342 342 340 338 338 338 338 340 340 338 336 336 337 335 334 332 329 329 329 329 330 330 330 332 332 332 333 334 335 334 335 336 336 335 334 333 332 333 333 334 334 334
335 330 329 329 330 330 330 332 339 346 347 348 347 347 346 344 343 339 337 336 335 333 333 333 332 333 334 333 327 324 325 326 326 324 322 324 326 327 330 337 342 342 342 343 342 340 340 340 339 340 340 340 338 336 336 336 335 334 332 329 330 329 330 331 331 331 331 331 330 331 332 334 334 335 335 335 334 332 332 332 333 333 333 333 333
333 328 327 329 330 330 330 332 341 346 347 348 347 347 346 344 342 340 338 336 334 333 334 333 333 334 336 335 329 326 326 326 326 324 322 325 330 332 336 340 342 342 342 342 342 341 340 340 338 339 340 340 340 337 335 336 335 332 331 330 330 331 331 333 333 333 333 333 332 331 330 331 332 334 334 333 332 332 333 332 332 333 333 332 332
331 328 328 328 329 330 330 333 341 346 347 347 347 346 344 344 343 341 339 336 334 334 334 333 334 336 337 337 332 328 326 327 327 326 325 330 336 338 340 341 342 342 341 342 342 340 339 338 338 337 339 339 339 339 336 335 333 330 330 331 332 333 334 333 334 334 334 334 333 332 330 329 329 332 333 333 333 333 333 332 333 332 332 333 332
331 329 328 328 329 329 329 333 340 345 345 346 347 345 344 344 343 343 340 336 335 334 334 334 336 338 338 337 334 331 328 328 328 328 329 334 339 340 341 342 342 342 341 341 340 339 338 337 338 339 339 338 340 339 336 334 332 329 330 333 334 334 335 335 335 335 336 336 335 333 331 331 329 331 333 333 332 333 333 332 333 332 331 332 332
330 330 328 327 329 328 329 331 338 342 344 345 346 345 344 344 344 344 341 337 336 335 335 336 337 339 339 338 336 335 334 334 333 333 333 337 339 339 341 341 341 341 340 339 338 337 337 337 339 340 338 337 338 336 335 334 331 329 332 334 335 335 335 336 336 336 337 338 338 335 332 332 331 331 332 333 332 332 333 333 334 333 332 331 332
330 331 328 328 328 329 329 330 335 339 342 343 344 345 344 343 344 343 341 339 338 337 336 336 338 339 339 339 338 338 338 338 336 336 336 337 337 337 339 340 340 340 339 337 337 337 336 337 338 339 338 337 336 335 336 335 331 330 332 334 334 334 334 334 335 336 337 338 339 335 332 332 331 329 331 333 332 332 333 333 333 333 332 331 331
333 331 327 328 328 328 328 328 333 337 340 341 343 344 344 343 343 342 341 340 338 337 336 338 339 339 339 340 339 337 336 334 333 332 332 332 331 331 331 335 337 338 338 336 335 336 336 337 338 339 338 336 334 334 335 334 330 329 331 332 332 333 334 334 334 336 336 337 337 335 333 332 330 327 329 334 334 333 333 331 331 331 331 332 331
335 332 328 328 328 328 328 328 331 334 336 339 342 344 343 342 343 342 341 339 338 337 337 339 340 340 340 339 336 333 332 331 331 330 330 329 328 327 326 328 332 336 336 335 335 336 335 337 339 339 337 334 332 332 333 333 330 327 328 330 333 334 334 334 335 336 336 337 336 334 333 332 330 328 329 332 334 333 333 331 330 331 331 331 332
337 331 327 328 328 328 328 329 330 332 336 340 342 342 343 342 342 341 339 339 337 337 338 339 340 339 337 335 333 331 332 332 332 332 331 331 330 329 326 324 327 332 334 335 337 336 335 336 338 337 335 333 332 332 331 329 327 326 326 330 334 335 334 335 335 336 336 336 335 334 334 332 332 331 328 330 333 333 331 330 331 331 331 330 331
337 330 327 328 329 328 328 329 329 334 339 341 341 341 342 341 341 340 338 337 337 338 339 340 339 336 334 333 333 333 334 334 334 334 333 333 332 330 327 323 324 330 335 337 337 336 336 336 336 335 334 333 332 331 328 327 324 324 325 330 335 334 334 334 334 335 336 336 335 334 334 333 331 329 327 329 332 332 330 329 330 331 331 330 330
337 330 327 329 329 328 328 328 330 334 339 339 340 341 341 341 339 339 338 337 338 339 339 338 335 333 333 333 334 335 335 336 335 335 335 335 333 331 329 324 324 330 336 337 337 336 335 336 334 334 333 332 331 329 328 328 326 324 324 329 333 334 334 334 334 334 335 335 334 334 333 331 329 327 326 328 331 331 330 329 330 330 330 330 330
337 330 328 329 330 328 327 328 329 333 336 338 340 341 341 340 338 338 338 337 339 339 338 335 332 333 333 334 335 335 336 336 336 335 335 335 334 332 330 325 324 331 336 336 336 336 335 334 333 332 333 331 329 330 329 328 328 325 324 328 333 334 334 334 335 334 334 334 334 334 333 331 328 326 325 329 331 331 330 330 330 330 331 330 330
337 332 330 331 331 329 328 328 328 331 335 338 340 341 341 339 337 338 338 338 338 337 335 333 331 331 333 333 333 335 336 336 336 336 335 335 334 332 330 326 325 331 336 336 335 335 333 333 332 331 331 329 329 331 329 327 329 327 325 330 333 334 334 334 335 335 335 334 335 334 332 332 329 326 324 328 331 330 330 330 330 330 330 330 330
338 333 332 332 332 330 329 329 329 330 333 335 338 340 339 338 337 337 338 338 337 335 334 332 332 331 331 332 333 334 336 337 337 336 335 334 334 333 331 327 325 330 335 336 335 334 332 331 331 330 330 329 329 330 329 327 329 328 326 331 333 333 334 335 335 334 334 333 333 333 333 331 330 327 324 328 330 330 329 329 330 330 330 329 330
339 336 334 332 330 330 330 332 331 330 331 333 336 338 337 336 337 337 338 337 335 334 333 333 333 332 332 333 333 334 336 337 338 337 337 335 334 333 332 330 327 328 331 333 333 333 332 331 331 331 331 330 330 330 330 327 327 330 327 327 330 332 334 334 334 334 333 332 332 333 333 332 330 327 324 328 330 329 329 329 329 329 329 329 330
341 338 337 333 330 329 330 331 330 329 331 333 335 335 335 336 337 337 338 336 334 332 332 333 332 334 334 334 334 334 336 337 338 339 338 336 335 334 333 332 330 329 329 331 332 333 333 332 332 332 331 331 331 330 330 327 326 330 329 326 327 331 334 334 334 334 333 333 333 334 333 332 331 328 324 326 329 329 329 329 329 329 328 329 329
337 332 334 335 331 329 328 329 329 328 330 332 335 335 336 337 338 338 337 335 332 332 331 332 333 333 334 335 335 335 335 337 338 338 338 337 336 335 335 334 333 330 330 331 332 333 333 333 333 332 332 331 330 330 329 326 324 328 330 328 328 332 333 333 334 333 333 333 333 333 332 332 330 329 325 325 329 329 329 329 328 328 328 328 329
335 332 335 336 332 329 327 328 328 329 329 332 336 337 337 337 337 337 335 332 330 330 330 331 332 333 333 334 334 335 336 337 338 338 338 336 335 335 335 335 334 332 331 331 332 333 333 333 333 332 332 331 330 329 328 327 323 326 330 329 329 333 331 332 335 333 333 333 333 333 332 331 330 329 326 326 329 329 329 328 328 328 328 328 328
337 337 340 340 335 329 328 328 328 329 329 331 334 336 336 336 336 334 332 330 329 329 330 331 333 334 334 335 335 336 336 337 338 337 337 336 335 334 334 335 333 332 332 331 332 332 332 331 331 330 330 330 329 328 327 327 324 323 328 329 328 330 329 332 336 334 333 333 333 332 331 330 328 327 326 327 329 328 328 328 328 328 328 328 328
340 340 341 343 338 332 330 329 330 330 329 329 331 333 334 334 335 334 331 331 331 331 332 332 334 336 336 336 336 337 337 337 337 337 338 337 335 334 333 333 332 332 332 332 332 333 332 331 330 329 329 328 327 328 327 327 326 323 325 328 328 328 329 333 336 334 332 333 331 330 329 327 325 325 325 327 329 328 328 328 328 328 327 327 327
340 341 341 343 341 337 335 333 333 333 330 330 330 331 332 333 334 334 333 332 331 333 333 333 335 336 336 336 337 337 338 337 337 338 338 337 336 335 334 333 332 331 331 332 332 333 332 331 330 329 329 327 326 326 326 328 328 325 322 326 330 330 330 333 335 335 333 332 331 329 328 326 323 324 326 328 328 327 328 328 328 327 327 327 327
340 342 342 343 343 341 339 336 336 335 331 331 331 331 332 334 336 334 333 333 332 333 333 333 335 336 335 336 336 337 337 337 338 338 337 338 337 337 336 335 332 331 331 332 331 331 330 329 328 327 326 323 323 323 325 328 329 328 324 323 331 333 332 333 335 336 333 331 330 329 327 326 324 324 327 329 328 328 329 328 328 327 327 327 327
340 342 343 343 343 343 341 340 338 335 334 334 333 333 334 337 337 334 333 333 333 333 333 333 335 334 335 335 335 337 336 336 337 337 337 338 337 337 337 336 334 332 332 332 330 330 329 328 326 327 327 323 324 326 327 330 329 331 328 323 328 332 332 333 335 335 332 331 331 328 327 325 324 325 328 329 329 329 329 328 328 327 326 327 326
338 338 341 341 341 344 343 342 341 338 338 339 337 334 335 338 337 334 333 333 333 333 332 333 334 335 335 336 335 336 336 336 336 337 336 337 336 337 337 337 336 334 333 332 330 330 332 331 331 332 332 329 329 330 330 331 330 331 330 325 326 330 332 334 335 335 333 331 329 328 327 325 324 326 329 329 329 329 329 327 327 327 326 326 326
336 335 338 337 336 342 345 342 342 341 341 341 340 338 338 339 336 335 335 335 335 335 334 334 335 335 335 336 336 335 336 335 336 336 336 336 337 337 337 337 336 335 334 333 332 333 334 334 334 333 333 331 331 332 331 332 331 330 330 328 327 329 332 332 334 334 332 331 330 328 328 326 325 327 329 329 329 330 329 326 326 326 325 326 327
335 335 336 335 333 340 345 343 342 342 342 342 342 341 340 340 338 338 339 338 337 336 335 335 336 336 336 336 336 336 336 335 335 336 337 337 336 337 336 335 335 335 334 333 333 333 333 333 334 334 333 331 331 332 331 331 330 330 330 330 328 329 330 330 333 334 333 332 331 329 328 328 325 326 329 328 329 330 329 326 326 323 321 325 326
334 334 336 337 336 340 344 343 343 342 342 342 342 341 340 340 339 339 339 338 337 337 336 336 336 336 337 336 336 337 336 336 335 336 336 337 337 336 336 335 335 335 334 334 333 333 333 333 334 334 333 330 330 331 330 330 330 329 329 330 328 328 328 329 332 334 334 334 333 331 330 328 327 326 328 329 330 331 329 328 327 324 320 321 325
334 334 337 339 337 340 344 342 342 341 340 341 341 340 340 340 339 338 337 337 337 336 335 336 336 336 336 336 337 336 336 336 336 335 336 337 337 336 336 335 334 334 334 333 333 333 334 334 333 334 332 330 330 330 330 330 329 329 329 329 328 327 327 328 332 334 334 334 334 332 330 328 327 327 328 330 331 332 330 329 329 327 322 318 321
334 333 336 338 337 341 344 341 341 339 338 339 339 339 339 339 339 337 337 337 336 336 336 337 337 336 336 336 336 337 336 337 336 336 336 336 336 335 334 334 333 334 333 333 333 334 334 333 333 333 332 331 331 330 330 330 329 329 328 328 328 328 327 327 330 333 333 334 334 334 331 328 327 327 328 330 331 331 331 330 329 329 327 322 320
333 333 336 338 339 342 342 340 339 338 337 337 337 338 338 338 337 337 336 336 336 336 336 336 335 336 335 335 336 337 337 336 336 336 336 335 335 334 333 333 333 333 333 333 333 333 333 334 334 333 331 331 332 331 330 329 329 328 327 327 327 327 327 326 328 331 332 333 334 335 333 330 328 327 328 330 331 331 331 331 330 329 330 327 322
334 335 337 339 341 341 340 340 339 336 335 335 335 335 336 336 336 335 335 335 335 335 335 334 334 334 335 335 336 337 336 336 335 336 336 335 334 333 333 333 333 333 333 333 333 333 334 334 334 333 332 333 333 332 331 329 329 328 327 327 327 327 328 326 326 330 332 333 334 334 334 332 330 327 327 328 329 331 331 331 331 330 330 329 327
336 336 338 339 340 340 338 338 337 335 333 332 332 331 334 335 335 334 334 335 334 334 334 334 334 335 334 335 336 336 336 335 335 335 335 335 334 334 334 334 333 333 333 333 334 334 334 334 334 333 333 333 333 332 331 329 329 328 329 328 328 328 327 326 326 328 330 333 333 333 334 334 331 328 326 327 328 329 330 330 330 330 330 329 329
339 338 338 339 338 337 336 336 334 334 333 332 332 331 332 333 332 332 332 333 332 332 333 333 334 335 335 335 335 335 335 335 335 334 335 335 334 333 333 333 333 333 333 333 333 333 333 333 333 333 333 333 332 332 330 329 329 329 330 328 329 329 328 328 327 327 329 332 334 334 333 333 332 329 327 327 327 328 329 329 330 329 330 330 329
340 339 339 338 337 336 334 333 333 333 333 332 333 332 332 332 332 332 332 331 330 331 332 333 334 334 334 334 334 334 334 334 335 334 335 335 334 333 333 333 334 332 333 333 333 333 333 333 333 334 334 333 331 331 330 329 329 328 329 329 328 329 330 329 329 328 329 330 332 332 332 332 331 330 329 327 327 327 328 328 329 329 328 330 329
339 338 338 337 336 335 334 333 332 332 331 330 330 331 331 331 331 332 331 330 329 330 331 332 333 333 333 333 333 333 333 333 334 334 334 334 333 333 333 333 333 332 332 333 333 332 333 333 334 334 334 333 332 331 331 330 329 328 328 329 329 329 329 329 329 329 328 329 329 330 330 330 330 330 329 328 328 327 327 327 328 328 327 328 329
339 337 337 335 334 334 333 332 330 329 329 327 328 328 329 329 328 329 329 329 329 329 330 330 331 331 331 331 332 332 332 332 332 331 331 331 331 331 331 331 332 332 332 333 333 332 333 333 333 333 334 334 332 331 330 330 329 329 328 330 330 330 329 328 329 330 329 329 329 328 329 329 330 330 329 328 328 328 328 328 327 327 326 326 327
337 336 335 335 334 333 332 330 328 327 327 326 327 327 327 327 327 327 326 326 327 327 328 328 329 329 329 329 329 330 330 330 330 329 329 328 328 330 330 330 330 331 331 331 332 332 333 333 332 333 333 333 332 331 330 330 330 330 329 330 330 331 330 328 329 330 329 328 328 328 328 328 328 329 330 329 328 328 328 328 328 327 326 326 325
335 334 335 334 334 333 331 330 329 329 329 328 328 327 326 324 324 326 324 324 326 326 326 326 327 327 327 327 327 328 328 328 328 327 326 326 327 328 328 328 328 329 330 330 331 332 332 332 332 332 331 331 332 331 331 331 331 330 330 330 331 330 329 329 329 328 328 327 326 327 328 328 327 328 329 329 328 329 329 329 329 327 327 326 326
336 334 335 335 334 333 331 330 331 330 329 327 327 326 324 323 323 325 324 325 326 326 326 326 326 326 325 324 324 324 324 324 326 324 323 325 326 326 327 327 327 328 330 330 330 330 331 331 331 332 331 331 331 331 331 331 331 330 330 330 330 330 330 330 329 327 326 325 325 325 325 326 326 326 327 327 328 329 329 330 330 330 328 327 327
337 335 335 335 334 333 331 330 329 328 326 326 325 324 325 324 323 324 324 325 326 326 325 324 323 323 322 323 324 322 319 320 324 323 322 324 325 326 327 327 328 328 329 330 330 330 331 331 331 331 331 330 330 331 331 331 330 329 329 330 331 331 330 330 330 328 326 324 324 323 323 324 325 325 326 326 328 328 330 332 332 332 331 329 329
338 337 336 335 334 334 331 329 327 327 327 327 326 325 325 324 323 323 324 325 325 325 324 322 322 322 322 324 324 323 321 321 323 324 322 323 324 325 325 326 328 328 327 328 329 329 330 330 330 330 329 329 330 330 330 330 330 329 329 331 332 332 332 330 330 329 328 327 325 324 323 323 323 324 326 326 327 328 331 331 331 331 331 330 331
338 338 336 335 335 334 331 328 328 328 328 327 326 325 325 324 323 324 325 325 325 323 323 322 323 323 323 324 323 323 322 322 322 322 321 321 322 322 322 322 324 326 327 327 328 327 328 329 329 329 329 329 330 330 330 330 330 329 330 332 331 332 334 332 331 330 329 329 329 328 326 325 324 324 327 327 327 328 329 329 330 331 331 331 332
337 338 337 336 336 334 331 329 329 329 327 324 324 323 324 325 325 324 324 323 323 322 322 322 322 322 324 323 323 323 322 322 321 321 320 320 321 320 320 320 320 322 323 324 324 324 325 326 328 329 328 329 330 329 330 330 329 329 330 330 331 334 335 331 331 332 329 328 327 327 328 327 326 326 328 329 327 328 328 328 330 331 331 331 332
337 337 336 337 336 333 330 330 329 327 325 324 323 323 323 324 325 322 321 321 322 322 322 321 322 322 324 323 323 323 322 321 321 321 321 320 318 316 316 317 316 317 318 318 318 319 320 322 325 327 328 328 328 328 329 328 328 329 329 329 330 332 332 330 332 333 329 328 326 326 327 328 328 328 329 330 328 328 328 330 330 329 329 330 331
336 336 336 337 336 333 329 329 328 326 325 324 323 322 322 323 323 320 319 322 322 321 321 321 322 322 323 323 322 321 320 320 320 320 320 319 316 314 315 315 314 314 315 316 317 317 317 318 321 324 325 327 328 327 327 327 327 328 328 329 328 329 329 330 332 334 332 331 328 327 328 328 328 329 330 331 329 328 328 329 330 330 330 330 331
337 336 335 335 336 333 328 328 327 325 325 325 323 322 322 321 319 318 320 323 322 321 321 321 321 320 321 321 320 320 319 319 319 318 317 317 315 315 315 315 313 312 312 314 316 317 317 317 317 319 321 323 325 324 324 326 326 327 328 327 326 326 325 326 328 330 333 334 331 330 328 326 327 327 329 330 329 328 328 328 329 329 330 330 331
336 336 334 334 336 333 329 327 327 326 325 324 323 321 318 316 317 319 322 322 321 321 321 321 320 320 320 321 320 319 318 317 316 315 315 315 315 315 315 314 314 313 311 312 315 317 317 317 315 316 318 319 320 319 319 320 321 322 324 325 325 325 325 325 325 325 329 332 333 333 329 327 327 325 324 325 325 325 326 326 326 327 329 330 330
334 335 335 334 335 333 329 328 327 326 325 323 322 320 317 316 318 322 323 322 321 320 320 320 320 321 320 319 318 317 317 316 315 315 315 315 314 314 316 317 317 317 316 316 317 318 317 318 318 316 316 317 317 316 315 316 317 318 320 322 324 325 324 324 323 323 324 326 327 327 324 324 326 324 323 321 319 320 321 321 321 323 326 327 328
332 332 334 333 334 334 329 329 327 326 326 323 321 319 317 318 319 322 322 321 321 320 319 320 320 320 319 318 317 316 316 316 316 316 316 315 315 315 316 317 317 318 318 318 319 319 319 319 319 318 317 318 319 317 315 316 316 316 317 317 318 319 319 319 318 318 318 320 322 321 317 318 320 319 321 320 318 317 317 317 317 317 319 322 326
Wind_Speed
26 30 29 26 25 22 21 20 19 20 19 20 20 20 20 19 19 19 19 19 18 17 17 17 16 16 15 15 17 19 20 20 21 20 20 19 17 16 16 16 16 16 16 16 15 14 15 14 14 15 16 15 15 15 15 15 14 14 14 15 16 17 18 17 17 18 19 20 19 18 18 17 16 16 17 18 18 17 16 17 17 17 17 16 16
27 30 29 27 26 23 23 21 20 20 20 20 20 20 19 19 19 19 20 19 19 18 18 17 17 16 15 15 16 18 19 19 19 19 18 17 16 15 15 15 15 15 15 15 14 14 15 15 14 15 15 14 14 13 14 14 13 13 14 15 16 18 18 18 18 18 19 19 18 18 18 17 16 16 17 17 17 15 15 16 16 17 17 16 15
30 29 29 28 26 24 23 22 21 20 20 20 20 20 19 19 19 19 20 20 19 19 18 18 17 16 16 15 16 17 18 18 18 18 17 15 14 14 14 15 14 14 14 14 14 15 16 15 15 14 14 13 13 13 13 13 13 13 14 16 17 18 19 18 18 19 19 19 19 18 18 18 17 15 17 17 16 16 16 15 15 16 16 15 14
31 29 29 28 27 25 24 23 22 21 20 20 20 20 19 19 18 19 20 20 20 19 19 19 18 16 16 15 15 16 16 17 17 16 15 13 13 13 13 14 14 13 13 14 14 15 15 14 14 13 13 12 12 11 11 12 12 12 14 16 17 17 18 18 18 19 19 19 18 17 17 18 17 16 16 16 16 17 16 15 15 16 15 15 15
32 29 29 29 27 26 24 23 22 21 21 20 20 19 19 19 18 18 19 20 20 20 20 19 18 16 16 16 15 15 15 15 14 13 12 12 13 13 13 13 13 13 13 13 14 14 14 13 13 12 12 11 11 10 10 10 10 12 14 15 16 16 17 16 16 18 19 19 17 16 16 17 17 16 16 15 16 14 14 15 15 15 15 15 16
32 29 29 29 28 26 24 24 22 22 21 20 19 19 20 18 18 18 18 20 20 20 20 19 18 17 16 16 15 15 14 14 13 12 12 12 13 13 13 12 12 12 12 12 13 13 12 12 12 12 11 10 11 10 9 8 9 12 14 15 16 15 15 14 14 16 17 15 15 15 15 17 17 16 15 14 14 13 13 14 14 13 14 15 15
32 29 29 30 28 26 25 24 23 22 21 20 19 20 20 19 18 18 18 19 20 21 20 19 18 17 16 16 16 15 14 13 13 12 12 12 11 12 12 12 11 10 10 11 11 11 11 11 11 11 10 10 9 9 9 8 9 13 15 16 15 14 13 12 11 11 11 10 11 12 13 15 16 15 14 13 13 13 13 13 13 14 15 14 15
32 29 30 31 28 27 25 24 23 22 21 20 20 20 20 19 18 19 19 19 20 21 20 18 17 17 16 16 15 15 14 13 13 12 12 11 11 11 11 11 11 10 10 11 11 10 10 10 10 10 9 9 8 8 9 8 10 14 16 15 14 12 11 10 9 7 7 6 8 11 11 13 13 13 14 12 11 12 11 11 13 14 14 13 14
30 29 30 31 29 28 26 25 24 23 22 20 20 21 21 19 19 19 19 20 21 20 19 18 18 17 16 16 15 15 14 13 13 12 11 10 9 9 9 9 10 10 10 11 12 10 10 10 10 9 9 7 6 7 8 7 9 13 15 14 12 12 12 10 9 9 7 4 9 13 12 12 12 12 13 11 10 10 9 10 12 13 13 13 13
29 29 31 31 29 28 26 25 24 23 22 21 21 21 21 20 19 19 20 21 21 20 19 17 17 17 16 16 15 15 14 13 12 11 10 9 9 8 8 8 9 9 10 11 11 10 10 10 9 8 7 6 6 6 6 6 8 12 14 12 12 12 11 10 10 11 11 11 17 17 12 11 11 11 11 11 10 9 9 11 12 12 13 13 13
28 30 31 30 29 28 27 26 24 23 22 22 22 21 22 21 20 19 20 21 20 19 18 17 17 17 17 16 15 14 13 12 11 10 10 9 9 9 9 9 9 9 11 11 10 10 10 10 8 6 5 6 7 6 6 6 7 10 13 12 12 11 10 9 11 12 13 18 21 17 12 9 9 9 9 10 10 8 7 10 11 11 12 12 13
29 31 31 30 29 27 27 25 24 23 22 22 21 22 21 21 21 20 21 20 19 18 17 17 17 17 17 16 15 13 12 11 10 9 9 9 9 9 9 9 10 11 12 11 9 9 9 8 6 4 4 6 7 7 8 8 8 9 13 13 12 10 9 10 12 14 15 19 18 14 11 8 9 8 8 10 11 9 8 10 11 11 11 11 12
29 30 31 30 29 28 26 25 24 23 22 22 22 22 21 22 21 21 20 19 18 17 17 17 17 17 16 15 14 12 11 11 10 9 8 8 8 8 9 9 10 11 12 10 8 8 7 6 4 3 5 7 8 9 10 10 9 9 13 14 11 9 9 10 12 14 15 17 14 12 10 9 9 8 7 10 10 10 10 11 10 10 11 11 11
29 31 31 30 29 27 26 24 23 23 22 22 23 23 21 21 21 20 19 18 17 17 17 16 16 15 14 13 12 11 10 10 9 8 8 7 8 8 9 9 10 12 11 9 9 8 5 4 3 4 6 7 9 10 9 9 9 9 12 14 11 10 9 10 12 13 13 14 11 10 9 8 8 7 7 11 11 10 11 11 10 10 10 10 11
30 31 30 29 28 26 25 24 23 22 22 23 23 23 22 22 20 19 18 17 17 17 16 15 15 14 13 12 10 10 9 9 8 7 7 7 7 8 8 9 10 11 11 9 8 7 5 4 4 6 7 7 9 8 8 8 8 8 11 13 11 10 9 10 11 12 14 14 11 10 8 8 8 7 6 11 11 10 10 10 10 11 10 10 10
29 30 29 27 26 25 24 22 22 22 22 23 23 22 22 21 20 19 18 17 17 16 15 14 13 12 12 10 9 9 8 8 7 7 6 5 6 7 8 9 10 10 10 9 8 6 4 5 6 7 7 7 8 6 6 6 7 8 10 11 10 10 7 9 10 11 15 12 10 10 8 8 7 5 5 10 11 9 10 10 10 10 10 10 10
24 26 27 26 25 24 23 21 21 21 21 21 21 22 21 20 19 18 18 17 16 15 14 13 13 12 11 10 9 8 8 7 7 6 5 5 5 6 7 8 9 8 8 7 6 5 4 5 7 7 7 7 7 5 5 5 5 6 8 9 9 7 6 8 8 8 14 11 9 9 8 8 5 4 5 10 11 10 10 9 10 10 9 9 9
21 21 22 22 24 23 22 21 20 20 20 20 20 20 20 20 19 18 18 17 16 15 14 13 12 11 10 10 9 9 7 7 6 6 5 5 4 5 6 6 7 6 6 6 5 5 4 5 6 7 6 6 5 4 4 4 4 4 5 8 9 6 6 9 10 8 14 11 9 9 7 6 3 3 4 9 11 10 10 9 9 10 9 9 9
21 20 18 17 21 21 21 20 20 20 20 20 20 19 19 19 19 18 18 16 15 14 13 12 11 10 9 9 9 9 8 6 6 6 6 5 4 4 4 5 6 5 5 5 5 4 4 5 5 6 6 4 3 3 2 3 3 3 3 6 8 6 6 8 9 8 12 10 10 8 6 5 4 4 5 9 12 11 10 10 9 9 9 8 9
24 22 17 16 19 20 21 21 20 20 20 20 20 19 19 19 19 18 17 16 15 13 12 11 10 9 9 9 9 8 8 7 6 6 6 6 5 4 4 4 4 5 5 4 4 4 5 5 5 5 4 3 1 0 1 2 2 2 2 5 8 6 6 5 6 6 11 9 9 7 6 6 4 5 6 10 12 11 10 10 9 9 9 9 9
26 23 17 14 16 19 20 19 19 19 19 19 19 19 19 19 19 18 17 16 15 15 14 13 11 10 9 8 7 7 6 6 6 6 6 6 6 5 5 5 4 4 4 4 4 4 5 4 5 4 3 2 2 3 3 2 1 1 1 3 8 6 5 4 7 6 12 9 7 6 6 5 4 6 8 11 13 12 11 10 10 9 9 9 8
26 25 20 16 15 18 19 18 19 18 18 18 18 18 18 19 19 18 17 16 16 16 15 14 13 11 10 9 7 7 6 6 6 6 6 7 7 7 7 6 5 4 4 4 4 4 4 3 3 3 3 3 3 3 3 2 1 1 1 1 5 5 4 3 7 6 11 8 7 6 5 4 5 7 9 13 13 12 12 11 10 10 10 9 8
25 25 23 22 19 19 20 20 20 19 19 19 18 18 18 19 19 18 17 16 16 16 15 15 14 12 11 11 9 8 7 7 8 7 6 8 9 8 8 7 6 5 4 3 3 3 2 2 1 1 2 2 3 3 3 2 1 2 2 1 3 4 3 2 5 4 8 8 8 7 6 5 5 7 10 13 12 12 12 11 10 10 10 9 9
22 25 24 23 23 23 22 22 22 21 21 20 19 19 19 19 19 19 18 17 16 14 14 14 14 13 12 12 11 10 9 9 9 9 8 9 10 8 8 8 7 6 4 3 3 3 3 2 2 3 3 3 3 3 2 2 2 2 3 3 3 3 1 2 2 1 7 9 7 7 6 5 6 7 10 12 11 12 13 12 11 10 10 10 9
20 23 23 21 21 24 24 23 23 22 21 21 21 21 21 21 20 19 18 16 14 13 12 12 13 13 12 12 12 11 10 10 10 10 10 10 10 9 8 8 7 5 5 4 4 4 3 4 4 3 4 4 3 2 2 3 5 5 5 5 5 3 2 1 1 0 6 10 7 6 5 5 7 8 10 11 11 12 12 12 11 10 10 10 9
18 18 22 19 15 20 24 23 23 22 21 21 21 22 22 22 20 19 17 15 14 13 13 12 12 12 11 12 12 12 12 11 11 11 10 9 8 9 8 7 6 5 4 4 5 4 3 4 4 4 5 4 2 4 5 8 9 6 5 5 5 3 2 3 4 2 7 9 6 6 5 5 8 9 10 10 11 12 12 12 12 11 11 10 10
17 16 21 17 11 17 22 21 23 22 21 20 20 22 22 20 19 18 16 15 15 15 14 14 13 12 11 11 11 11 12 12 12 11 8 7 6 7 6 6 7 7 7 6 7 6 6 5 4 4 4 3 5 7 10 12 11 8 6 7 5 3 3 6 6 4 7 8 6 6 4 4 7 9 11 10 11 13 11 11 12 12 12 11 10
20 18 23 20 14 18 23 23 23 23 22 20 20 21 21 19 18 17 16 15 15 14 14 14 12 12 10 9 9 9 9 9 10 9 6 5 5 6 6 8 10 11 12 11 11 11 11 10 8 8 6 6 7 7 9 9 8 8 7 8 8 6 7 8 8 8 8 7 5 5 4 4 7 9 11 10 11 14 11 10 12 12 12 12 11
24 24 27 24 16 19 24 23 23 23 22 20 20 21 19 18 17 16 14 13 13 12 12 13 12 11 9 8 9 9 7 7 8 9 7 6 6 6 7 9 10 12 11 12 12 13 13 12 11 10 9 8 7 6 6 4 3 7 7 7 8 8 8 9 10 10 8 7 5 5 5 5 6 9 11 10 11 13 12 11 12 10 10 12 12
26 27 29 26 18 20 23 22 22 22 21 21 21 20 19 17 16 14 12 10 11 11 11 11 10 11 9 7 9 10 9 9 9 9 8 7 7 7 8 8 9 10 10 12 13 13 13 11 10 10 10 8 7 6 6 3 3 6 9 8 9 10 9 9 10 11 9 8 7 6 6 5 6 8 10 10 11 13 12 11 12 10 8 10 12
27 28 30 29 22 23 23 22 22 20 18 20 20 19 18 16 14 12 11 11 12 11 10 10 10 10 10 9 9 10 10 10 8 8 8 7 7 8 8 8 9 10 11 12 13 13 11 10 9 9 10 8 6 6 6 5 4 5 5 7 8 11 13 11 11 12 10 10 9 8 7 7 6 7 10 10 11 12 11 11 12 11 9 8 11
29 31 31 30 27 27 25 23 22 18 16 17 17 17 16 15 13 11 10 12 12 10 9 9 10 10 10 9 9 8 8 8 8 8 7 6 7 8 8 9 10 11 11 11 12 13 10 9 9 10 10 7 4 5 6 7 5 4 3 5 5 8 15 15 13 13 13 12 11 11 9 9 8 6 8 10 10 11 11 12 12 11 10 9 9
26 28 30 29 29 28 26 23 21 18 16 16 15 15 15 14 13 11 10 11 9 8 8 9 9 8 7 7 7 7 6 7 7 7 6 5 6 7 9 11 11 10 10 11 11 12 10 8 8 9 9 5 2 3 5 7 8 4 5 6 5 4 12 15 13 13 13 14 13 14 12 10 10 8 7 9 9 10 11 11 12 12 11 10 10
21 24 30 30 28 26 24 22 19 17 17 16 15 14 14 14 13 11 10 9 8 7 8 9 9 7 5 5 6 7 7 7 7 7 6 5 6 7 9 11 10 8 9 10 10 10 9 8 7 8 8 5 2 2 5 7 7 5 7 8 3 1 6 8 9 5 5 15 17 14 14 11 11 11 9 9 9 10 10 11 12 13 12 11 11
25 28 33 31 27 25 23 21 18 16 15 14 13 13 13 14 14 12 11 9 8 8 9 10 10 7 4 3 4 6 7 7 6 6 6 6 7 7 8 9 8 7 7 7 8 7 6 6 7 9 8 6 5 3 4 5 5 5 7 9 4 3 4 5 6 3 6 10 18 15 15 14 13 14 12 11 11 11 10 11 12 13 13 13 12
32 31 33 30 27 25 24 23 20 18 17 16 15 14 14 15 14 13 12 10 8 9 10 10 9 7 5 2 2 3 4 5 6 6 6 6 6 6 7 7 7 7 7 5 6 5 3 4 7 8 7 7 6 4 3 4 4 6 8 10 6 1 2 3 4 2 8 5 9 11 14 16 16 15 14 13 12 12 11 11 11 12 13 13 12
32 31 32 29 29 27 26 25 22 22 22 19 18 17 17 17 16 14 12 9 7 9 10 10 9 8 7 6 6 5 4 3 4 4 4 4 4 5 6 8 8 7 6 5 5 4 3 4 6 7 7 7 8 7 5 3 3 6 10 10 7 5 4 2 1 1 3 5 4 2 4 10 16 18 17 15 13 12 12 11 11 11 12 13 12
29 29 31 29 30 28 26 25 21 21 21 18 16 16 17 16 16 13 12 11 8 9 10 11 11 10 8 8 7 7 7 6 5 4 3 2 1 1 3 6 7 7 5 4 4 4 4 5 5 6 7 7 7 7 7 4 4 4 8 9 8 7 7 7 6 4 2 0 3 4 5 3 6 14 18 18 16 13 12 12 12 11 11 12 12
27 27 28 28 29 26 25 24 21 21 20 20 18 16 16 16 15 13 13 12 12 13 13 11 12 10 10 9 8 7 7 6 5 6 5 4 4 3 2 3 1 3 3 4 4 5 4 4 5 5 5 6 7 8 7 5 4 3 4 5 6 7 6 8 9 7 4 3 1 1 2 5 6 2 13 18 18 16 15 14 13 13 12 12 12
26 27 27 28 29 27 27 25 23 24 22 21 19 18 17 16 16 15 14 13 14 16 15 14 13 12 13 11 8 8 8 8 7 6 5 5 6 6 6 7 5 3 2 1 2 5 5 3 4 4 3 6 8 9 8 5 3 2 2 3 4 5 5 6 8 9 8 5 3 1 2 3 6 5 2 9 14 18 18 16 15 15 15 14 13
25 26 26 27 29 28 27 26 25 24 24 23 21 20 18 17 17 18 17 16 16 18 16 15 14 12 11 9 8 8 6 6 8 6 5 5 6 6 7 7 6 6 5 4 3 1 3 2 2 3 4 6 9 8 8 7 3 1 1 2 3 4 5 6 7 8 10 9 8 6 4 3 4 5 4 3 6 14 18 18 16 15 16 15 15
26 26 25 26 27 26 27 27 26 25 24 24 22 21 19 19 18 18 19 17 15 16 14 12 10 9 9 9 10 9 7 7 8 7 6 6 6 7 7 7 6 6 6 4 4 3 1 2 2 4 5 5 6 4 5 6 4 4 2 1 1 2 4 6 6 7 8 9 10 11 10 8 6 6 5 5 2 7 17 20 17 17 18 17 16
25 25 26 25 25 25 26 27 28 26 24 23 22 22 20 19 18 18 20 18 15 13 12 13 12 12 12 12 11 9 9 8 9 10 8 8 9 10 9 9 7 6 8 8 6 6 2 2 4 5 4 4 3 1 2 4 5 5 4 2 1 0 2 5 5 5 6 8 9 10 11 11 10 6 5 4 2 4 10 14 14 17 18 18 18
23 24 26 25 24 24 26 27 27 24 22 22 22 22 20 19 20 21 21 21 19 16 15 16 15 14 14 13 12 10 11 11 11 12 11 10 12 11 10 11 11 8 7 9 10 10 8 5 5 4 6 8 5 2 2 4 6 6 3 1 1 2 1 3 2 2 3 4 5 7 8 9 9 5 3 1 1 4 4 4 7 12 14 15 17
23 23 26 26 24 24 25 25 24 23 23 23 24 23 23 24 25 25 23 22 20 19 18 17 15 15 14 13 12 11 12 13 11 10 10 11 12 11 9 9 12 12 11 12 12 12 11 9 7 6 7 9 7 5 3 3 7 8 3 2 2 1 2 2 1 1 1 1 2 4 5 6 6 5 2 1 3 3 3 4 5 8 10 12 16
22 21 24 25 24 23 23 23 22 23 24 24 24 25 25 27 27 25 24 23 21 20 19 19 18 17 15 13 12 10 10 10 9 8 8 9 13 13 10 9 11 12 13 13 13 12 13 12 9 8 8 7 8 7 6 5 4 6 6 4 1 1 3 2 1 0 1 1 1 2 3 4 4 4 3 3 3 3 4 5 6 7 8 9 13
23 22 24 24 24 24 22 22 23 24 25 25 24 24 25 25 24 23 24 24 23 20 20 21 20 17 16 15 12 10 9 9 9 8 7 9 12 11 9 11 12 10 10 10 10 10 12 12 11 11 10 7 8 8 7 6 5 4 5 5 2 2 4 2 2 2 1 1 0 0 1 1 2 4 4 3 4 3 3 5 6 7 8 8 9
23 23 25 24 26 26 23 22 23 24 25 25 25 25 25 24 23 23 23 24 24 23 22 21 19 18 18 16 14 14 13 11 10 10 10 11 11 11 10 11 11 9 9 9 8 9 10 11 11 11 12 11 9 10 9 7 5 4 3 4 3 3 3 1 2 3 3 2 0 0 1 1 0 2 4 4 4 4 3 4 6 7 9 9 8
24 24 26 25 26 27 25 23 24 25 26 26 26 25 25 24 24 25 25 24 24 24 23 21 19 19 20 18 16 16 14 13 12 12 12 11 11 14 15 13 12 12 11 11 11 11 12 12 11 11 13 14 12 11 11 10 8 6 3 3 3 3 3 3 2 2 2 2 0 2 1 1 1 0 1 2 3 4 5 5 6 7 8 8 7
23 23 24 25 27 28 26 26 26 26 27 26 26 26 25 25 25 26 27 27 25 24 23 22 20 20 20 18 16 16 15 14 14 13 12 11 11 13 14 13 12 12 12 13 13 13 13 13 13 12 12 13 12 11 12 11 12 12 9 7 5 4 3 3 4 3 2 2 1 1 3 4 3 2 2 1 3 4 5 6 7 7 8 9 9
23 24 23 22 26 29 28 28 29 28 28 27 28 28 27 26 25 27 29 28 26 24 24 23 21 21 20 18 17 17 16 15 14 13 11 11 11 11 12 13 12 11 10 11 11 11 12 12 12 11 11 12 13 12 13 12 12 14 14 14 12 10 9 7 7 8 7 4 2 2 6 8 5 5 5 3 5 5 4 4 7 8 8 9 10
Wind_Direction
155 152 146 147 148 147 147 147 143 142 140 141 143 146 146 147 145 142 142 141 139 136 134 129 124 120 117 115 114 115 115 114 112 110 108 107 106 104 100 96 95 95 96 94 92 89 85 85 85 83 84 87 89 92 93 94 98 98 98 99 101 101 99 95 93 96 98 97 96 93 87 81 77 75 75 75 81 81 76 74 73 72 70 69 68
155 149 147 147 148 147 147 146 143 142 141 141 143 145 146 146 145 142 143 142 140 137 135 130 126 123 120 118 119 120 119 117 114 111 109 107 106 104 102 98 97 98 98 96 94 91 89 89 86 85 86 88 90 93 94 92 93 96 96 97 98 99 99 98 94 94 98 97 95 96 91 84 81 79 75 75 78 77 74 74 73 73 72 71 70
151 149 148 147 147 147 148 146 142 142 141 142 143 145 145 145 144 143 144 143 141 138 137 132 128 126 124 122 123 125 123 120 117 114 110 108 107 106 105 101 100 99 97 97 95 92 92 92 88 87 87 88 90 90 91 92 91 94 97 99 99 100 102 101 97 97 95 92 90 91 91 87 86 83 77 75 75 73 73 74 73 73 74 73 72
150 149 149 147 147 147 148 145 142 144 143 143 143 143 143 143 143 144 144 143 142 140 137 133 131 129 127 126 126 128 128 125 122 119 114 110 110 109 106 104 103 100 99 98 96 96 95 93 91 89 87 87 89 87 89 95 90 90 100 103 104 106 106 105 102 100 96 90 88 86 86 87 89 84 79 77 74 73 72 74 77 75 74 73 73
150 151 150 148 147 148 147 144 143 144 144 144 142 142 141 140 141 142 143 143 143 141 138 135 133 131 131 131 129 129 130 129 128 125 119 115 115 114 110 108 106 104 104 101 98 96 95 94 92 92 92 90 90 89 89 95 87 91 106 109 109 111 110 111 110 108 104 94 86 83 81 82 86 84 80 79 75 74 73 73 79 76 74 75 74
151 152 150 147 147 148 147 145 144 144 145 144 141 141 140 139 139 139 141 144 143 141 139 137 134 133 135 135 133 130 129 129 129 128 125 122 118 117 113 110 109 107 104 101 100 96 96 96 97 98 96 95 97 97 92 92 90 99 114 117 113 112 110 111 114 117 117 104 86 86 86 84 85 84 80 77 77 76 73 71 75 76 77 78 76
152 151 149 148 147 148 147 145 144 145 145 142 140 140 139 139 139 137 138 141 141 141 140 137 135 135 138 139 136 132 128 126 126 127 128 127 124 123 119 116 112 108 106 105 104 100 102 101 103 101 97 99 101 98 93 94 98 109 121 121 115 114 113 111 115 122 130 119 98 100 99 93 89 87 83 78 79 78 75 78 79 78 80 79 77
150 151 151 148 147 147 147 145 144 145 144 142 139 138 138 139 139 137 137 139 140 141 140 137 135 137 140 140 135 131 129 128 129 131 134 135 133 132 130 129 126 124 121 115 110 106 106 109 112 104 99 103 98 96 100 101 103 117 125 122 120 119 121 121 123 123 129 125 113 123 114 98 93 91 88 78 81 84 88 95 86 82 82 80 81
150 152 151 149 148 148 147 146 144 145 144 142 139 137 137 138 137 137 138 139 141 141 140 137 136 137 138 137 133 131 132 134 136 136 138 137 133 133 135 140 140 138 135 126 118 112 111 117 120 108 104 101 93 103 106 102 104 123 129 124 126 124 124 119 110 98 87 99 138 140 123 102 91 83 85 83 85 97 105 94 81 83 85 83 82
151 153 152 149 147 147 147 145 144 145 143 140 137 137 138 137 136 137 138 139 141 141 138 137 136 135 134 134 133 133 135 134 134 131 129 126 122 122 124 134 140 141 139 129 119 118 131 135 127 113 108 96 88 99 99 93 101 126 133 131 130 122 116 105 98 90 80 111 142 143 124 106 85 69 83 96 95 106 109 86 79 85 88 87 83
153 154 152 149 147 148 147 145 145 143 139 135 134 136 138 136 134 136 138 140 142 140 138 137 135 133 133 135 136 135 133 129 126 124 121 117 114 113 114 120 129 135 132 123 122 134 149 152 135 115 105 94 88 84 81 84 92 120 135 136 125 115 108 97 93 88 97 128 142 141 124 102 75 68 84 102 98 101 108 94 91 92 91 93 90
154 154 152 149 147 148 147 145 143 139 135 133 133 134 137 136 134 136 138 140 140 139 137 135 134 134 136 137 136 134 132 129 126 123 118 114 110 110 110 114 122 130 129 121 130 147 155 159 139 114 102 90 86 82 84 86 88 113 138 140 124 117 109 94 88 87 117 140 142 135 119 92 77 79 91 108 105 96 101 101 97 94 94 94 96
153 153 151 148 146 148 146 144 142 138 135 133 132 131 134 134 133 136 137 139 139 138 136 134 136 137 139 138 137 136 135 132 129 125 121 119 114 111 109 112 122 130 129 119 123 138 151 159 136 116 111 94 94 97 96 90 89 112 140 145 133 129 110 94 88 89 128 144 131 123 106 89 83 83 103 113 108 97 95 99 99 96 95 94 97
153 152 150 146 144 146 145 143 141 138 135 131 131 131 132 133 133 135 135 137 136 135 135 135 139 140 141 140 141 139 137 136 132 129 125 123 119 113 110 113 124 130 128 121 120 125 137 148 125 117 114 104 111 112 101 89 90 111 140 148 142 134 108 97 91 90 138 148 126 124 107 93 83 82 109 111 106 102 101 101 100 97 95 95 97
152 148 145 142 140 142 143 143 141 137 135 131 131 133 135 134 132 134 134 135 133 134 135 137 141 142 144 142 143 143 143 144 137 133 126 123 120 115 112 114 126 131 127 125 124 124 124 125 113 115 117 117 125 118 98 86 89 108 142 150 145 135 104 98 94 95 141 145 128 134 115 97 79 73 108 116 114 111 111 107 102 100 98 98 99
147 143 139 138 137 139 141 141 140 137 134 133 133 134 136 134 132 134 134 134 133 136 138 141 144 147 149 147 149 152 154 152 146 142 132 124 124 121 116 116 127 133 131 130 128 125 119 120 118 120 123 126 131 119 94 82 85 108 145 157 148 135 107 107 99 105 141 143 130 135 114 101 82 64 103 120 121 117 116 111 106 104 98 97 99
129 133 134 136 139 139 140 137 137 136 134 134 133 135 136 134 134 135 136 136 137 142 147 150 153 155 156 157 158 162 164 161 157 147 137 132 133 130 122 122 130 135 138 138 134 127 119 120 126 129 129 131 133 123 101 83 80 105 144 165 159 144 124 109 85 111 149 149 135 133 117 109 92 69 113 129 126 123 122 117 113 109 103 101 102
108 119 128 134 139 140 140 137 139 140 138 136 135 137 135 134 136 138 138 139 142 149 157 159 159 161 160 163 167 169 171 170 166 153 149 151 148 141 128 126 130 134 140 143 142 135 130 124 130 138 135 134 132 125 108 81 74 92 136 164 168 161 134 97 71 120 156 154 143 139 129 120 103 94 128 137 132 130 127 124 120 116 111 105 107
122 132 136 138 140 143 144 143 145 145 142 139 137 138 135 135 138 138 139 141 149 160 164 163 162 166 167 168 173 172 171 174 175 168 169 165 159 156 141 134 130 134 143 147 152 150 146 139 143 149 146 146 133 121 93 57 64 75 115 157 170 167 140 94 70 136 160 155 150 145 138 129 121 123 137 141 137 138 137 132 128 123 118 109 110
139 142 144 148 147 148 149 148 148 147 146 143 140 139 137 138 137 137 141 148 161 169 168 168 171 176 177 176 175 173 170 171 177 179 182 177 170 173 162 157 156 150 151 160 164 160 158 159 160 158 163 170 173 225 338 348 37 73 101 158 175 174 157 107 58 158 167 151 151 142 138 135 133 143 146 146 144 146 143 138 134 129 124 117 117
142 142 140 145 151 152 151 152 150 149 150 148 146 142 141 141 138 141 149 159 171 175 173 174 179 183 181 176 170 168 171 171 177 184 188 188 182 187 187 187 189 168 165 178 180 172 167 172 173 173 187 213 263 280 296 298 338 92 104 163 186 190 176 98 44 177 173 153 159 145 143 145 147 160 158 152 149 151 148 141 140 134 131 126 125
139 140 140 145 151 153 154 155 150 151 153 152 152 145 144 144 143 151 158 167 177 179 178 181 182 184 180 171 167 163 166 175 184 188 189 197 196 197 199 199 199 197 198 196 195 188 182 185 187 195 214 242 265 273 282 263 267 188 151 165 199 205 195 69 40 180 178 164 171 155 150 151 154 165 161 158 155 155 150 147 148 142 138 134 130
136 138 148 154 154 157 159 158 152 155 158 157 156 151 150 148 151 160 162 173 185 184 184 187 185 187 183 175 174 173 178 186 189 193 197 202 203 203 206 204 202 213 226 223 221 207 214 231 221 245 250 261 267 270 267 228 219 213 205 195 199 215 212 53 43 182 193 184 169 152 149 148 159 169 160 158 158 156 154 154 154 149 145 139 135
142 141 152 156 156 163 164 161 160 163 164 163 160 158 155 152 158 166 168 179 189 189 190 192 189 192 193 187 182 182 197 202 193 201 213 210 205 202 208 213 207 212 227 236 244 246 260 273 292 300 301 297 283 269 248 234 288 290 250 214 180 211 264 36 49 170 200 189 165 150 153 151 159 167 163 158 158 158 158 160 158 155 152 146 142
150 145 150 154 157 166 169 165 167 169 168 167 162 161 159 157 163 171 176 182 187 191 196 195 193 195 197 195 189 188 205 215 205 208 220 223 216 207 208 215 210 210 223 234 246 260 280 293 304 322 333 317 286 256 235 276 302 303 269 219 189 222 301 320 231 185 191 186 165 154 154 153 160 166 169 162 160 162 163 164 162 162 160 154 152
152 143 141 151 161 164 169 168 169 170 169 169 164 163 163 162 167 174 180 185 190 195 200 200 198 202 198 194 195 195 206 220 221 216 219 226 223 213 210 211 206 207 222 239 257 269 286 291 300 319 336 326 303 296 289 297 290 281 273 225 198 218 252 234 226 174 178 181 156 153 152 150 163 168 172 166 162 166 172 172 166 168 167 161 160
149 142 135 147 173 167 167 169 167 166 167 167 165 165 165 167 173 179 185 190 194 197 202 204 205 209 202 192 192 193 202 218 228 226 218 216 216 211 206 208 200 197 201 209 227 242 244 245 253 269 295 297 295 294 294 301 278 251 268 252 231 223 215 227 227 184 169 174 151 152 155 158 170 172 175 174 168 171 181 180 174 177 174 166 167
147 147 141 149 181 177 169 171 168 165 166 167 164 165 166 168 175 182 189 192 195 199 202 202 202 206 205 196 188 185 196 210 216 215 209 201 200 195 201 211 203 199 202 200 205 218 227 231 231 234 244 253 260 261 272 296 272 243 261 257 244 229 221 229 223 200 178 178 170 163 167 175 180 181 183 181 171 176 186 183 180 185 181 172 170
146 151 146 149 176 179 171 173 170 167 166 166 163 162 163 166 171 180 188 189 193 200 204 204 203 203 205 202 192 186 185 185 185 188 195 205 204 200 211 216 206 205 206 203 207 215 222 230 231 232 236 239 243 243 257 289 270 248 249 237 231 222 223 227 214 202 193 194 197 186 187 191 191 189 189 186 175 180 188 184 183 189 186 178 174
149 152 145 148 178 182 173 174 170 169 166 164 165 160 159 162 165 175 184 185 190 200 203 205 209 207 206 205 196 187 179 181 183 181 190 203 208 215 222 218 212 212 208 209 217 216 217 226 229 227 228 237 249 255 261 277 312 278 250 226 215 213 217 223 210 200 201 206 206 200 198 196 200 198 194 190 180 183 190 187 185 191 195 185 178
155 154 146 151 180 183 175 176 171 170 167 165 169 163 160 162 166 175 180 180 187 199 205 206 213 213 209 208 203 191 181 189 189 178 188 204 213 220 221 215 214 214 212 214 222 222 219 227 229 221 223 233 242 243 244 255 316 329 267 242 229 221 215 210 208 204 207 210 207 208 205 200 203 202 198 195 188 187 191 188 188 193 200 191 177
161 156 150 154 173 178 173 175 170 168 169 167 169 166 165 165 168 177 176 179 185 196 206 208 211 213 210 208 206 199 189 197 191 175 187 205 213 218 216 213 210 209 212 212 220 229 229 232 230 220 218 223 233 240 240 246 278 351 334 301 303 248 220 206 207 211 211 211 211 211 207 202 204 203 200 199 195 193 192 190 193 196 199 196 181
159 155 154 159 167 169 168 169 165 163 162 160 161 159 163 167 167 171 173 177 181 188 198 198 200 204 207 207 207 207 203 205 196 178 181 195 204 208 213 219 215 211 215 214 220 231 234 236 232 214 203 200 225 253 245 244 256 297 323 313 342 285 226 207 206 211 210 212 213 210 207 205 203 204 203 200 200 198 197 195 196 199 201 199 193
153 156 157 160 161 161 161 161 157 152 146 144 145 145 155 163 159 155 160 162 158 160 173 176 179 182 190 204 210 214 214 213 209 196 191 198 210 214 218 224 220 215 219 218 222 232 240 238 218 200 194 198 212 232 248 254 259 280 297 292 337 50 206 196 200 201 206 213 212 207 207 210 209 208 206 201 202 201 203 201 198 202 204 202 200
137 145 149 150 149 150 151 149 145 144 145 144 145 152 158 155 146 142 144 143 138 146 159 162 164 161 163 205 222 220 218 216 213 203 201 209 219 224 226 226 221 223 222 214 223 234 244 229 204 202 205 213 212 203 248 266 274 274 279 285 312 101 141 153 182 92 59 199 207 206 205 209 213 213 209 203 203 202 204 205 204 205 203 206 207
126 135 141 142 143 144 144 142 140 141 147 141 136 144 148 144 143 140 139 137 128 136 147 148 150 147 137 143 160 186 208 215 205 192 197 211 222 232 233 231 230 239 237 228 235 241 243 220 204 207 213 213 206 194 227 250 257 251 264 281 291 267 129 105 160 119 59 113 198 212 213 213 213 214 213 211 207 202 202 205 210 210 203 206 212
128 134 138 140 140 143 145 145 144 142 146 143 134 134 133 134 139 138 139 140 129 128 135 136 137 135 125 108 97 104 109 125 172 180 191 205 228 247 247 246 247 255 255 238 226 221 234 229 209 209 216 215 210 206 215 245 274 247 255 269 271 260 235 185 169 212 63 70 89 160 216 225 224 221 217 215 213 205 201 202 207 212 207 208 215
134 139 140 141 139 142 145 147 148 146 149 148 142 137 133 131 132 132 131 127 119 121 128 131 132 127 117 105 96 95 94 97 112 103 102 125 80 274 260 262 252 254 261 246 227 221 238 244 224 217 220 218 221 227 230 261 311 277 265 270 264 259 241 225 231 240 238 352 46 58 59 29 248 234 227 222 218 212 205 202 202 208 212 212 217
139 142 142 143 141 144 145 145 147 145 144 142 138 136 135 135 135 134 129 120 114 119 121 124 128 120 107 106 103 102 101 102 111 92 74 68 62 65 41 17 291 258 260 242 234 232 237 245 239 230 223 221 226 239 246 260 294 295 285 281 265 256 245 234 230 224 221 225 258 338 33 29 29 256 234 231 227 222 215 207 203 205 210 213 217
144 145 144 145 143 145 144 145 144 140 140 139 139 139 137 139 141 138 133 123 118 119 118 117 119 114 109 107 105 112 111 102 105 98 72 62 69 74 63 53 48 21 16 7 244 227 219 232 256 248 205 214 219 224 236 243 267 288 276 269 269 258 245 249 246 229 223 221 227 271 284 323 20 43 234 242 238 232 226 218 212 210 210 213 215
148 148 149 148 145 147 146 147 146 144 144 143 145 146 145 146 144 140 137 130 122 119 117 118 119 115 112 102 92 98 105 104 98 92 87 80 78 80 75 71 63 46 44 30 6 261 202 201 265 249 195 213 223 220 230 232 231 244 216 235 254 265 256 260 265 250 240 241 249 268 282 284 330 1 16 351 250 236 233 225 220 219 217 216 216
150 151 153 150 148 150 150 151 151 150 148 146 148 149 151 153 148 144 145 140 132 126 116 115 118 113 107 99 92 81 86 116 107 95 103 96 92 97 89 87 85 73 74 63 27 35 212 195 192 220 206 219 232 221 224 226 210 193 176 153 225 261 268 261 263 266 262 260 263 271 279 277 289 319 338 354 10 221 229 228 225 225 224 223 222
152 153 155 153 153 154 155 156 155 155 154 155 157 154 156 160 155 153 150 140 134 131 118 108 107 108 106 102 103 90 86 110 113 104 108 101 104 109 97 91 101 106 99 97 90 81 92 171 170 199 189 171 201 225 220 221 203 178 154 113 116 192 278 275 263 263 270 270 271 272 276 273 273 302 326 322 43 139 208 223 230 232 229 229 232
154 153 154 157 159 161 162 160 159 162 160 159 160 156 157 156 150 148 143 133 128 125 117 112 111 115 112 101 101 100 95 105 112 107 105 100 103 110 104 92 93 109 116 104 93 83 79 92 114 146 157 153 150 119 196 207 196 175 134 120 130 100 230 275 260 237 253 259 263 263 268 269 261 276 316 298 133 122 151 182 214 230 232 235 239
156 155 157 160 164 168 168 166 165 166 158 152 152 149 146 143 138 135 132 128 126 126 123 121 119 119 116 107 103 102 102 108 110 107 105 96 91 96 101 91 87 95 103 100 91 80 74 77 86 108 136 146 142 133 148 174 195 198 173 122 100 100 205 220 124 140 239 236 248 257 267 267 249 246 255 167 161 152 130 125 167 210 226 237 242
158 159 161 162 167 172 175 174 168 165 162 157 155 151 146 144 141 137 134 133 134 135 134 130 126 123 120 120 115 106 106 113 115 117 113 98 90 90 91 88 87 92 95 96 95 85 80 80 83 97 112 123 126 127 134 132 167 200 197 183 163 150 171 161 123 149 29 45 272 266 283 271 237 233 227 201 206 178 139 133 153 191 209 222 229
163 165 166 167 170 173 179 180 170 167 167 165 164 161 154 152 151 145 142 142 142 141 140 134 131 130 126 124 120 113 110 111 115 119 117 108 99 91 92 96 90 87 91 94 94 90 89 90 92 96 99 113 125 119 118 122 123 143 183 201 216 157 155 159 153 154 116 66 35 225 344 313 253 251 244 234 240 218 171 162 165 174 176 176 189
167 170 172 173 173 173 179 183 176 172 171 170 171 169 163 158 152 147 147 148 144 139 139 136 133 133 129 124 121 117 115 112 111 113 113 114 105 91 98 106 92 78 82 89 96 99 100 99 101 101 99 106 117 112 105 108 115 117 155 183 184 153 135 130 139 127 130 146 262 286 72 38 56 238 247 268 278 258 243 229 213 194 174 162 163
169 174 178 179 175 173 178 185 182 178 175 173 173 171 165 157 151 150 150 148 143 138 138 137 135 134 130 128 126 122 121 116 110 110 112 117 113 97 95 97 88 79 81 86 92 97 101 100 99 103 103 103 103 104 100 93 95 96 111 160 168 147 103 84 110 99 105 132 258 277 284 309 286 278 215 262 307 297 287 281 267 240 210 198 192
175 176 180 182 177 174 178 187 189 184 179 175 172 168 161 155 156 157 151 146 144 142 140 139 139 139 134 132 131 126 122 119 113 111 111 114 118 108 99 96 93 89 83 84 86 87 91 92 92 97 104 106 102 99 100 95 88 82 85 106 119 118 101 76 74 56 53 107 67 309 343 343 315 349 37 66 10 334 301 286 280 274 254 241 234
185 184 186 186 179 176 181 188 192 189 182 177 172 167 161 159 163 161 153 150 149 148 144 142 142 142 139 135 134 131 128 127 125 123 122 118 116 113 108 106 105 103 96 92 91 88 90 91 92 96 101 107 105 99 98 98 90 82 83 89 89 88 84 68 60 58 59 62 47 17 360 357 0 21 24 359 337 321 306 287 268 267 265 254 248